QPF
0.02 0.02 0.04 0.06 0.05 0.04 0.03 0.02 0.02 0.02 0.01 0.01 0.01 0.01 0.00 0.00 0.02 0.07 0.06 0.05 0.06 0.07 0.06 0.07 0.10 0.11 0.12 0.14 0.18 0.17 0.11 0.09 0.09 0.12 0.11 0.07 0.05 0.06 0.11 0.19 0.22 0.18 0.15 0.17 0.22 0.21 0.15 0.17 0.18
0.03 0.04 0.08 0.07 0.05 0.02 0.02 0.02 0.01 0.01 0.00 0.00 0.00 0.00 0.00 0.00 0.01 0.01 0.01 0.02 0.05 0.07 0.07 0.09 0.10 0.09 0.09 0.13 0.15 0.16 0.16 0.13 0.11 0.12 0.10 0.07 0.07 0.08 0.10 0.13 0.15 0.14 0.16 0.19 0.20 0.18 0.15 0.17 0.18
0.04 0.06 0.09 0.06 0.04 0.02 0.02 0.03 0.02 0.00 0.00 0.00 0.00 0.00 0.00 0.01 0.00 0.00 0.00 0.02 0.05 0.07 0.08 0.09 0.09 0.07 0.07 0.09 0.13 0.14 0.17 0.17 0.15 0.11 0.09 0.08 0.09 0.10 0.10 0.11 0.12 0.12 0.18 0.28 0.29 0.22 0.18 0.19 0.21
0.05 0.06 0.05 0.03 0.03 0.03 0.03 0.02 0.01 0.01 0.01 0.00 0.00 0.00 0.00 0.01 0.00 0.00 0.00 0.03 0.03 0.03 0.05 0.06 0.06 0.05 0.06 0.06 0.09 0.11 0.12 0.12 0.12 0.10 0.10 0.10 0.09 0.11 0.16 0.20 0.15 0.12 0.16 0.24 0.32 0.29 0.26 0.25 0.25
0.04 0.05 0.04 0.02 0.02 0.04 0.04 0.02 0.01 0.01 0.00 0.00 0.00 0.00 0.01 0.01 0.01 0.00 0.01 0.03 0.03 0.02 0.02 0.04 0.05 0.05 0.05 0.05 0.05 0.06 0.07 0.09 0.08 0.10 0.11 0.10 0.09 0.15 0.22 0.18 0.18 0.13 0.12 0.18 0.31 0.40 0.39 0.40 0.40
0.03 0.03 0.02 0.01 0.01 0.02 0.02 0.01 0.01 0.00 0.00 0.00 0.00 0.00 0.01 0.02 0.02 0.01 0.01 0.02 0.03 0.02 0.02 0.03 0.04 0.04 0.03 0.03 0.04 0.05 0.07 0.08 0.09 0.10 0.10 0.08 0.10 0.17 0.21 0.14 0.16 0.16 0.13 0.18 0.27 0.35 0.48 0.71 0.62
0.04 0.03 0.02 0.01 0.01 0.01 0.01 0.01 0.01 0.00 0.00 0.00 0.00 0.01 0.01 0.02 0.02 0.02 0.03 0.02 0.02 0.02 0.02 0.02 0.02 0.03 0.04 0.04 0.05 0.07 0.08 0.10 0.12 0.13 0.14 0.09 0.10 0.15 0.20 0.18 0.17 0.21 0.19 0.17 0.22 0.27 0.33 0.53 0.42
0.03 0.03 0.03 0.02 0.01 0.01 0.01 0.01 0.01 0.00 0.00 0.00 0.00 0.01 0.01 0.01 0.01 0.02 0.02 0.04 0.03 0.02 0.02 0.02 0.02 0.02 0.02 0.03 0.07 0.08 0.10 0.13 0.15 0.17 0.18 0.15 0.14 0.14 0.13 0.14 0.19 0.27 0.25 0.21 0.20 0.19 0.17 0.28 0.25
0.04 0.03 0.03 0.02 0.01 0.01 0.00 0.00 0.00 0.00 0.00 0.00 0.00 0.01 0.01 0.01 0.01 0.02 0.02 0.04 0.03 0.02 0.02 0.03 0.02 0.01 0.01 0.03 0.07 0.09 0.13 0.16 0.17 0.16 0.18 0.16 0.13 0.13 0.12 0.18 0.29 0.30 0.24 0.21 0.19 0.16 0.14 0.15 0.14
0.02 0.02 0.01 0.01 0.01 0.01 0.01 0.00 0.00 0.00 0.00 0.00 0.01 0.01 0.01 0.01 0.02 0.04 0.03 0.04 0.04 0.04 0.04 0.04 0.03 0.02 0.02 0.03 0.06 0.09 0.14 0.18 0.15 0.13 0.15 0.12 0.11 0.14 0.16 0.22 0.26 0.27 0.23 0.19 0.18 0.14 0.11 0.08 0.06
0.01 0.01 0.01 0.01 0.01 0.01 0.01 0.01 0.00 0.00 0.01 0.01 0.01 0.02 0.01 0.02 0.02 0.04 0.03 0.03 0.04 0.04 0.04 0.06 0.07 0.05 0.04 0.05 0.07 0.12 0.18 0.17 0.11 0.10 0.08 0.08 0.11 0.15 0.20 0.24 0.25 0.23 0.17 0.13 0.12 0.08 0.06 0.06 0.04
0.01 0.01 0.01 0.01 0.01 0.01 0.01 0.01 0.00 0.00 0.01 0.00 0.00 0.01 0.01 0.02 0.03 0.04 0.03 0.03 0.02 0.02 0.03 0.06 0.08 0.08 0.08 0.07 0.09 0.13 0.16 0.11 0.07 0.06 0.04 0.05 0.08 0.12 0.14 0.13 0.13 0.11 0.10 0.07 0.06 0.04 0.04 0.04 0.03
0.02 0.01 0.01 0.01 0.01 0.01 0.01 0.00 0.00 0.00 0.00 0.00 0.00 0.01 0.01 0.01 0.02 0.02 0.02 0.02 0.01 0.01 0.01 0.03 0.05 0.08 0.09 0.06 0.06 0.08 0.10 0.07 0.04 0.03 0.03 0.05 0.07 0.08 0.06 0.05 0.06 0.06 0.06 0.04 0.04 0.03 0.03 0.03 0.03
0.01 0.01 0.01 0.01 0.01 0.01 0.00 0.00 0.00 0.01 0.00 0.00 0.00 0.01 0.01 0.01 0.02 0.02 0.01 0.01 0.02 0.01 0.01 0.01 0.01 0.02 0.03 0.03 0.03 0.03 0.02 0.02 0.03 0.03 0.03 0.03 0.04 0.04 0.03 0.03 0.03 0.03 0.03 0.03 0.03 0.02 0.03 0.03 0.04
0.00 0.00 0.01 0.01 0.01 0.01 0.01 0.01 0.01 0.01 0.01 0.01 0.01 0.01 0.01 0.01 0.01 0.01 0.01 0.01 0.01 0.01 0.01 0.01 0.01 0.01 0.01 0.02 0.02 0.01 0.01 0.02 0.01 0.02 0.03 0.02 0.02 0.02 0.02 0.02 0.02 0.01 0.01 0.02 0.03 0.02 0.03 0.03 0.03
0.00 0.01 0.01 0.01 0.01 0.01 0.01 0.02 0.02 0.02 0.02 0.02 0.02 0.01 0.01 0.01 0.01 0.01 0.01 0.01 0.01 0.01 0.01 0.01 0.01 0.01 0.01 0.02 0.02 0.02 0.01 0.01 0.02 0.02 0.02 0.03 0.02 0.02 0.02 0.02 0.02 0.01 0.01 0.02 0.02 0.02 0.01 0.02 0.02
0.01 0.01 0.01 0.01 0.01 0.01 0.02 0.03 0.02 0.02 0.03 0.03 0.02 0.02 0.01 0.01 0.01 0.01 0.01 0.01 0.01 0.01 0.01 0.01 0.00 0.00 0.01 0.02 0.02 0.02 0.02 0.02 0.02 0.02 0.01 0.02 0.02 0.02 0.02 0.02 0.02 0.02 0.02 0.02 0.01 0.01 0.01 0.01 0.01
0.01 0.01 0.02 0.02 0.01 0.01 0.03 0.05 0.03 0.03 0.03 0.04 0.03 0.02 0.02 0.02 0.01 0.00 0.01 0.02 0.02 0.01 0.01 0.00 0.00 0.00 0.01 0.01 0.01 0.02 0.02 0.03 0.03 0.03 0.02 0.02 0.01 0.01 0.01 0.01 0.01 0.01 0.02 0.02 0.02 0.01 0.02 0.02 0.02
0.00 0.01 0.01 0.01 0.01 0.01 0.02 0.03 0.02 0.03 0.03 0.03 0.02 0.02 0.02 0.02 0.01 0.01 0.01 0.02 0.01 0.00 0.00 0.00 0.00 0.00 0.01 0.01 0.01 0.00 0.01 0.02 0.04 0.03 0.02 0.01 0.01 0.01 0.01 0.00 0.01 0.01 0.01 0.01 0.01 0.01 0.02 0.03 0.03
0.00 0.01 0.01 0.01 0.01 0.01 0.01 0.02 0.02 0.01 0.01 0.02 0.02 0.01 0.02 0.02 0.01 0.01 0.01 0.01 0.00 0.00 0.01 0.01 0.01 0.01 0.01 0.01 0.01 0.01 0.01 0.01 0.05 0.06 0.03 0.01 0.01 0.02 0.02 0.02 0.01 0.01 0.01 0.01 0.01 0.01 0.02 0.02 0.03
0.00 0.00 0.00 0.01 0.00 0.00 0.00 0.00 0.01 0.01 0.01 0.01 0.01 0.01 0.02 0.02 0.01 0.01 0.01 0.01 0.01 0.01 0.02 0.01 0.01 0.01 0.02 0.02 0.01 0.01 0.00 0.00 0.01 0.02 0.02 0.02 0.02 0.02 0.02 0.02 0.03 0.03 0.02 0.01 0.01 0.02 0.03 0.03 0.04
0.00 0.01 0.01 0.01 0.01 0.01 0.00 0.00 0.00 0.01 0.01 0.01 0.01 0.01 0.01 0.01 0.01 0.01 0.01 0.02 0.02 0.02 0.02 0.02 0.03 0.04 0.03 0.02 0.01 0.01 0.01 0.01 0.01 0.01 0.01 0.01 0.01 0.01 0.01 0.01 0.03 0.02 0.02 0.02 0.02 0.03 0.04 0.05 0.05
0.00 0.00 0.01 0.02 0.01 0.01 0.00 0.00 0.00 0.00 0.00 0.01 0.01 0.01 0.00 0.01 0.01 0.01 0.01 0.03 0.03 0.04 0.03 0.03 0.06 0.04 0.03 0.03 0.03 0.02 0.01 0.01 0.01 0.00 0.00 0.00 0.00 0.01 0.01 0.02 0.02 0.02 0.02 0.01 0.02 0.02 0.03 0.04 0.03
0.01 0.01 0.02 0.03 0.02 0.01 0.00 0.00 0.00 0.00 0.00 0.00 0.01 0.00 0.00 0.01 0.01 0.01 0.02 0.03 0.06 0.06 0.04 0.05 0.04 0.03 0.03 0.03 0.03 0.02 0.01 0.00 0.00 0.00 0.01 0.01 0.01 0.01 0.01 0.02 0.01 0.01 0.02 0.02 0.02 0.02 0.02 0.02 0.03
0.01 0.02 0.02 0.03 0.03 0.01 0.00 0.00 0.00 0.01 0.00 0.01 0.01 0.01 0.01 0.01 0.02 0.02 0.03 0.03 0.07 0.08 0.06 0.05 0.04 0.04 0.03 0.03 0.03 0.02 0.02 0.01 0.01 0.01 0.01 0.01 0.02 0.02 0.02 0.01 0.02 0.02 0.02 0.01 0.01 0.01 0.02 0.02 0.02
0.02 0.01 0.01 0.01 0.01 0.01 0.01 0.00 0.00 0.00 0.00 0.00 0.00 0.01 0.01 0.01 0.02 0.02 0.02 0.03 0.04 0.06 0.04 0.03 0.03 0.04 0.04 0.04 0.03 0.03 0.03 0.02 0.01 0.01 0.02 0.02 0.03 0.03 0.03 0.02 0.03 0.03 0.03 0.02 0.02 0.02 0.01 0.02 0.03
0.02 0.02 0.01 0.01 0.00 0.01 0.01 0.01 0.00 0.00 0.00 0.00 0.00 0.00 0.01 0.01 0.01 0.02 0.02 0.03 0.03 0.04 0.03 0.04 0.04 0.03 0.05 0.06 0.04 0.03 0.03 0.03 0.03 0.03 0.03 0.03 0.03 0.03 0.02 0.02 0.03 0.03 0.03 0.04 0.04 0.03 0.03 0.03 0.04
0.01 0.01 0.02 0.01 0.01 0.00 0.00 0.00 0.00 0.00 0.00 0.00 0.00 0.00 0.00 0.01 0.01 0.01 0.01 0.02 0.03 0.03 0.04 0.04 0.04 0.04 0.06 0.06 0.05 0.05 0.05 0.05 0.06 0.05 0.03 0.03 0.04 0.03 0.03 0.04 0.03 0.04 0.05 0.05 0.05 0.05 0.04 0.04 0.04
0.01 0.01 0.01 0.01 0.01 0.01 0.00 0.00 0.00 0.00 0.00 0.00 0.00 0.00 0.00 0.00 0.01 0.01 0.01 0.01 0.02 0.03 0.05 0.06 0.07 0.07 0.07 0.09 0.06 0.07 0.06 0.06 0.06 0.06 0.04 0.03 0.04 0.05 0.06 0.08 0.09 0.08 0.06 0.06 0.05 0.05 0.04 0.03 0.03
0.01 0.01 0.01 0.01 0.01 0.01 0.00 0.00 0.00 0.00 0.00 0.00 0.00 0.00 0.01 0.01 0.01 0.01 0.01 0.01 0.02 0.04 0.05 0.05 0.06 0.08 0.07 0.06 0.06 0.07 0.08 0.07 0.06 0.06 0.07 0.08 0.08 0.09 0.11 0.15 0.14 0.09 0.05 0.05 0.05 0.05 0.04 0.03 0.03
MSLP
1006.21 1007.32 1008.66 1010.10 1011.46 1012.59 1013.41 1013.88 1014.03 1013.93 1013.71 1013.45 1013.24 1013.07 1012.92 1012.74 1012.43 1011.92 1011.17 1010.16 1008.90 1007.44 1005.83 1004.13 1002.39 1000.69 999.09 997.66 996.48 995.66 995.25 995.32 995.88 996.85 998.16 999.67 1001.23 1002.70 1004.00 1005.06 1005.89 1006.55 1007.09 1007.59 1008.11 1008.66 1009.24 1009.83 1010.39
1006.73 1008.04 1009.51 1010.99 1012.30 1013.31 1013.93 1014.17 1014.09 1013.79 1013.40 1013.04 1012.78 1012.62 1012.53 1012.43 1012.22 1011.82 1011.17 1010.27 1009.13 1007.80 1006.33 1004.78 1003.21 1001.68 1000.23 998.93 997.85 997.07 996.65 996.65 997.08 997.90 999.01 1000.32 1001.69 1003.00 1004.16 1005.13 1005.91 1006.54 1007.09 1007.61 1008.15 1008.72 1009.33 1009.94 1010.52
1007.48 1008.93 1010.47 1011.93 1013.13 1013.96 1014.37 1014.37 1014.06 1013.57 1013.04 1012.60 1012.31 1012.17 1012.14 1012.11 1011.99 1011.69 1011.16 1010.38 1009.37 1008.19 1006.88 1005.52 1004.14 1002.80 1001.54 1000.40 999.44 998.72 998.31 998.25 998.55 999.19 1000.09 1001.17 1002.32 1003.43 1004.43 1005.28 1006.00 1006.60 1007.15 1007.69 1008.25 1008.86 1009.49 1010.13 1010.74
1008.36 1009.91 1011.46 1012.84 1013.90 1014.53 1014.71 1014.50 1013.99 1013.36 1012.73 1012.25 1011.95 1011.84 1011.86 1011.90 1011.85 1011.64 1011.20 1010.54 1009.66 1008.64 1007.51 1006.34 1005.18 1004.04 1002.97 1002.00 1001.17 1000.52 1000.11 999.99 1000.17 1000.63 1001.32 1002.17 1003.09 1004.00 1004.84 1005.58 1006.22 1006.79 1007.34 1007.89 1008.49 1009.12 1009.78 1010.43 1011.05
1009.25 1010.83 1012.33 1013.59 1014.48 1014.92 1014.91 1014.53 1013.90 1013.18 1012.53 1012.04 1011.77 1011.70 1011.76 1011.85 1011.87 1011.72 1011.37 1010.80 1010.06 1009.18 1008.24 1007.26 1006.30 1005.36 1004.48 1003.66 1002.94 1002.36 1001.96 1001.78 1001.85 1002.15 1002.65 1003.29 1004.00 1004.73 1005.42 1006.05 1006.62 1007.16 1007.71 1008.28 1008.89 1009.54 1010.20 1010.85 1011.45
1010.00 1011.54 1012.94 1014.06 1014.78 1015.05 1014.91 1014.44 1013.76 1013.04 1012.42 1011.98 1011.77 1011.75 1011.85 1011.98 1012.03 1011.93 1011.64 1011.17 1010.55 1009.83 1009.05 1008.27 1007.49 1006.74 1006.01 1005.33 1004.71 1004.18 1003.78 1003.56 1003.53 1003.69 1004.03 1004.50 1005.04 1005.61 1006.17 1006.71 1007.23 1007.74 1008.28 1008.85 1009.46 1010.10 1010.75 1011.37 1011.93
1010.49 1011.93 1013.19 1014.14 1014.71 1014.86 1014.65 1014.16 1013.52 1012.88 1012.36 1012.02 1011.88 1011.93 1012.07 1012.22 1012.29 1012.22 1011.99 1011.61 1011.11 1010.53 1009.93 1009.32 1008.71 1008.12 1007.54 1006.97 1006.43 1005.94 1005.55 1005.29 1005.19 1005.25 1005.46 1005.79 1006.20 1006.64 1007.10 1007.56 1008.03 1008.51 1009.03 1009.59 1010.18 1010.79 1011.39 1011.95 1012.45
1010.67 1011.96 1013.04 1013.83 1014.27 1014.35 1014.12 1013.69 1013.16 1012.67 1012.28 1012.08 1012.04 1012.14 1012.31 1012.48 1012.56 1012.51 1012.34 1012.04 1011.66 1011.24 1010.79 1010.35 1009.91 1009.47 1009.01 1008.54 1008.06 1007.62 1007.23 1006.95 1006.80 1006.79 1006.91 1007.14 1007.44 1007.79 1008.17 1008.56 1008.98 1009.42 1009.91 1010.43 1010.98 1011.54 1012.07 1012.55 1012.96
1010.58 1011.70 1012.60 1013.23 1013.55 1013.60 1013.41 1013.08 1012.71 1012.38 1012.17 1012.10 1012.16 1012.32 1012.51 1012.67 1012.75 1012.73 1012.60 1012.40 1012.14 1011.86 1011.58 1011.31 1011.02 1010.71 1010.37 1009.98 1009.58 1009.17 1008.81 1008.53 1008.35 1008.30 1008.36 1008.52 1008.74 1009.02 1009.32 1009.65 1010.01 1010.41 1010.84 1011.32 1011.81 1012.30 1012.75 1013.14 1013.46
1010.36 1011.29 1012.02 1012.49 1012.73 1012.76 1012.63 1012.43 1012.21 1012.06 1012.01 1012.07 1012.21 1012.40 1012.60 1012.75 1012.82 1012.82 1012.74 1012.62 1012.49 1012.36 1012.23 1012.11 1011.97 1011.79 1011.56 1011.26 1010.92 1010.57 1010.24 1009.97 1009.80 1009.73 1009.75 1009.86 1010.04 1010.25 1010.49 1010.76 1011.06 1011.40 1011.78 1012.19 1012.62 1013.03 1013.40 1013.70 1013.92
1010.19 1010.94 1011.49 1011.84 1012.00 1012.02 1011.95 1011.86 1011.79 1011.79 1011.86 1012.01 1012.20 1012.40 1012.58 1012.71 1012.77 1012.77 1012.75 1012.71 1012.68 1012.68 1012.70 1012.72 1012.71 1012.65 1012.52 1012.31 1012.05 1011.76 1011.48 1011.25 1011.09 1011.03 1011.04 1011.13 1011.26 1011.43 1011.61 1011.83 1012.07 1012.34 1012.66 1013.00 1013.35 1013.69 1013.98 1014.21 1014.35
1010.22 1010.82 1011.22 1011.45 1011.54 1011.55 1011.52 1011.51 1011.54 1011.63 1011.78 1011.97 1012.17 1012.35 1012.49 1012.59 1012.63 1012.64 1012.64 1012.67 1012.74 1012.84 1012.98 1013.11 1013.21 1013.26 1013.22 1013.10 1012.92 1012.71 1012.49 1012.31 1012.19 1012.14 1012.16 1012.24 1012.35 1012.48 1012.62 1012.78 1012.96 1013.18 1013.43 1013.71 1013.99 1014.27 1014.50 1014.66 1014.75
1010.56 1011.03 1011.30 1011.43 1011.46 1011.44 1011.43 1011.45 1011.53 1011.66 1011.83 1012.01 1012.18 1012.31 1012.40 1012.45 1012.47 1012.47 1012.50 1012.57 1012.70 1012.88 1013.09 1013.31 1013.49 1013.62 1013.66 1013.63 1013.53 1013.40 1013.25 1013.13 1013.06 1013.04 1013.08 1013.15 1013.24 1013.34 1013.45 1013.57 1013.71 1013.87 1014.06 1014.28 1014.52 1014.74 1014.92 1015.05 1015.10
1011.20 1011.56 1011.74 1011.79 1011.76 1011.72 1011.70 1011.71 1011.78 1011.89 1012.02 1012.15 1012.26 1012.33 1012.36 1012.36 1012.35 1012.35 1012.39 1012.48 1012.64 1012.84 1013.09 1013.35 1013.58 1013.76 1013.88 1013.92 1013.90 1013.85 1013.78 1013.72 1013.70 1013.71 1013.76 1013.83 1013.91 1014.00 1014.08 1014.17 1014.27 1014.39 1014.54 1014.72 1014.90 1015.08 1015.24 1015.35 1015.40
1012.02 1012.30 1012.41 1012.41 1012.35 1012.28 1012.23 1012.22 1012.24 1012.29 1012.35 1012.39 1012.42 1012.43 1012.40 1012.37 1012.34 1012.33 1012.37 1012.46 1012.61 1012.81 1013.05 1013.31 1013.56 1013.77 1013.94 1014.04 1014.10 1014.12 1014.12 1014.12 1014.14 1014.17 1014.23 1014.29 1014.37 1014.44 1014.51 1014.58 1014.65 1014.75 1014.86 1015.00 1015.15 1015.30 1015.44 1015.54 1015.61
1012.83 1013.06 1013.14 1013.12 1013.05 1012.97 1012.90 1012.85 1012.81 1012.77 1012.74 1012.69 1012.64 1012.58 1012.52 1012.47 1012.43 1012.43 1012.46 1012.54 1012.66 1012.83 1013.04 1013.27 1013.50 1013.72 1013.92 1014.08 1014.20 1014.29 1014.36 1014.41 1014.45 1014.50 1014.55 1014.61 1014.66 1014.72 1014.77 1014.83 1014.89 1014.96 1015.05 1015.15 1015.27 1015.40 1015.52 1015.63 1015.71
1013.45 1013.65 1013.73 1013.73 1013.70 1013.64 1013.57 1013.49 1013.38 1013.26 1013.13 1012.99 1012.87 1012.76 1012.68 1012.63 1012.61 1012.62 1012.66 1012.72 1012.81 1012.93 1013.08 1013.26 1013.46 1013.68 1013.90 1014.11 1014.30 1014.45 1014.58 1014.66 1014.73 1014.77 1014.80 1014.83 1014.86 1014.89 1014.93 1014.97 1015.02 1015.08 1015.14 1015.22 1015.30 1015.40 1015.50 1015.60 1015.71
1013.73 1013.93 1014.06 1014.15 1014.20 1014.20 1014.16 1014.06 1013.90 1013.69 1013.46 1013.24 1013.05 1012.91 1012.84 1012.81 1012.83 1012.88 1012.93 1012.98 1013.03 1013.10 1013.18 1013.31 1013.48 1013.68 1013.93 1014.18 1014.43 1014.65 1014.83 1014.95 1015.02 1015.06 1015.06 1015.05 1015.05 1015.05 1015.06 1015.09 1015.12 1015.16 1015.20 1015.24 1015.29 1015.34 1015.42 1015.51 1015.62
1013.64 1013.89 1014.12 1014.34 1014.52 1014.63 1014.64 1014.54 1014.33 1014.04 1013.72 1013.41 1013.16 1013.00 1012.94 1012.96 1013.03 1013.13 1013.21 1013.27 1013.29 1013.31 1013.34 1013.41 1013.54 1013.75 1014.01 1014.32 1014.64 1014.92 1015.15 1015.31 1015.39 1015.41 1015.38 1015.33 1015.28 1015.25 1015.24 1015.25 1015.27 1015.29 1015.30 1015.30 1015.30 1015.30 1015.33 1015.40 1015.50
1013.25 1013.60 1013.98 1014.38 1014.72 1014.97 1015.06 1014.97 1014.72 1014.34 1013.91 1013.51 1013.20 1013.01 1012.96 1013.03 1013.17 1013.33 1013.46 1013.53 1013.55 1013.53 1013.51 1013.53 1013.64 1013.84 1014.14 1014.50 1014.89 1015.24 1015.54 1015.74 1015.83 1015.84 1015.79 1015.70 1015.61 1015.55 1015.51 1015.50 1015.51 1015.50 1015.49 1015.45 1015.40 1015.34 1015.31 1015.33 1015.41
1012.72 1013.20 1013.79 1014.40 1014.95 1015.35 1015.52 1015.43 1015.12 1014.63 1014.08 1013.57 1013.17 1012.95 1012.91 1013.03 1013.23 1013.46 1013.64 1013.74 1013.76 1013.72 1013.66 1013.65 1013.73 1013.94 1014.27 1014.69 1015.14 1015.58 1015.94 1016.19 1016.32 1016.33 1016.26 1016.15 1016.04 1015.95 1015.89 1015.87 1015.86 1015.85 1015.81 1015.73 1015.62 1015.51 1015.41 1015.36 1015.40
1012.23 1012.91 1013.73 1014.58 1015.33 1015.86 1016.09 1015.99 1015.59 1014.97 1014.27 1013.62 1013.13 1012.85 1012.81 1012.96 1013.23 1013.52 1013.76 1013.89 1013.92 1013.86 1013.77 1013.73 1013.80 1014.01 1014.36 1014.83 1015.36 1015.87 1016.31 1016.63 1016.80 1016.83 1016.77 1016.66 1016.53 1016.43 1016.37 1016.34 1016.33 1016.31 1016.25 1016.15 1015.99 1015.82 1015.65 1015.54 1015.52
1011.96 1012.86 1013.92 1014.99 1015.92 1016.56 1016.81 1016.66 1016.14 1015.37 1014.51 1013.71 1013.10 1012.76 1012.69 1012.87 1013.18 1013.54 1013.83 1014.00 1014.04 1013.97 1013.86 1013.79 1013.83 1014.04 1014.41 1014.92 1015.50 1016.09 1016.60 1016.98 1017.21 1017.29 1017.25 1017.15 1017.04 1016.94 1016.89 1016.87 1016.87 1016.85 1016.79 1016.67 1016.49 1016.27 1016.04 1015.87 1015.78
1011.98 1013.09 1014.37 1015.64 1016.70 1017.40 1017.64 1017.40 1016.74 1015.80 1014.76 1013.81 1013.09 1012.68 1012.60 1012.79 1013.15 1013.56 1013.90 1014.11 1014.16 1014.08 1013.95 1013.85 1013.86 1014.05 1014.42 1014.95 1015.57 1016.21 1016.79 1017.24 1017.53 1017.66 1017.67 1017.60 1017.50 1017.43 1017.39 1017.40 1017.41 1017.41 1017.36 1017.24 1017.05 1016.81 1016.54 1016.31 1016.16
1012.27 1013.58 1015.03 1016.43 1017.56 1018.27 1018.45 1018.09 1017.29 1016.19 1015.00 1013.92 1013.11 1012.65 1012.56 1012.77 1013.17 1013.63 1014.02 1014.26 1014.32 1014.24 1014.08 1013.94 1013.92 1014.08 1014.43 1014.96 1015.61 1016.28 1016.91 1017.41 1017.75 1017.94 1017.99 1017.96 1017.90 1017.85 1017.84 1017.87 1017.91 1017.94 1017.92 1017.82 1017.64 1017.39 1017.11 1016.84 1016.65
1012.74 1014.20 1015.76 1017.20 1018.34 1018.99 1019.08 1018.60 1017.67 1016.44 1015.15 1013.99 1013.13 1012.66 1012.57 1012.82 1013.26 1013.77 1014.19 1014.46 1014.54 1014.45 1014.27 1014.11 1014.05 1014.17 1014.50 1015.01 1015.65 1016.34 1016.99 1017.53 1017.92 1018.14 1018.24 1018.24 1018.22 1018.20 1018.21 1018.26 1018.34 1018.40 1018.40 1018.34 1018.19 1017.97 1017.70 1017.42 1017.20
1013.27 1014.79 1016.36 1017.79 1018.85 1019.40 1019.38 1018.80 1017.77 1016.48 1015.14 1013.98 1013.13 1012.69 1012.65 1012.94 1013.43 1013.97 1014.43 1014.72 1014.81 1014.72 1014.53 1014.35 1014.26 1014.35 1014.64 1015.13 1015.75 1016.43 1017.09 1017.64 1018.06 1018.31 1018.44 1018.48 1018.47 1018.47 1018.51 1018.58 1018.68 1018.77 1018.82 1018.80 1018.69 1018.51 1018.28 1018.03 1017.80
1013.71 1015.21 1016.72 1018.03 1018.97 1019.39 1019.25 1018.59 1017.53 1016.24 1014.95 1013.85 1013.08 1012.72 1012.76 1013.10 1013.64 1014.22 1014.70 1015.00 1015.10 1015.02 1014.83 1014.64 1014.54 1014.61 1014.88 1015.34 1015.94 1016.60 1017.24 1017.80 1018.22 1018.49 1018.64 1018.69 1018.71 1018.72 1018.77 1018.85 1018.97 1019.08 1019.17 1019.19 1019.15 1019.02 1018.84 1018.64 1018.44
1013.98 1015.38 1016.74 1017.87 1018.63 1018.91 1018.67 1017.98 1016.94 1015.74 1014.57 1013.62 1012.99 1012.75 1012.87 1013.28 1013.85 1014.44 1014.93 1015.23 1015.34 1015.27 1015.09 1014.92 1014.83 1014.91 1015.17 1015.61 1016.19 1016.83 1017.46 1018.00 1018.42 1018.70 1018.86 1018.93 1018.96 1018.98 1019.03 1019.12 1019.24 1019.38 1019.49 1019.56 1019.57 1019.51 1019.39 1019.25 1019.10
1014.07 1015.29 1016.43 1017.34 1017.90 1018.03 1017.72 1017.03 1016.09 1015.04 1014.06 1013.30 1012.85 1012.75 1012.98 1013.44 1014.02 1014.60 1015.06 1015.35 1015.45 1015.40 1015.25 1015.12 1015.07 1015.17 1015.45 1015.89 1016.46 1017.09 1017.70 1018.24 1018.65 1018.94 1019.11 1019.20 1019.24 1019.28 1019.33 1019.43 1019.55 1019.70 1019.83 1019.93 1019.99 1019.99 1019.94 1019.86 1019.77
Thickness
5814 5811 5808 5798 5782 5766 5765 5779 5789 5788 5789 5796 5799 5794 5784 5777 5772 5768 5792 5801 5802 5801 5801 5802 5802 5802 5801 5801 5801 5801 5802 5802 5802 5802 5801 5800 5800 5799 5799 5799 5799 5798 5797 5796 5793 5791 5790 5788 5786
5815 5811 5803 5791 5770 5754 5765 5784 5787 5791 5797 5802 5800 5795 5787 5783 5789 5790 5795 5800 5802 5801 5801 5800 5801 5801 5800 5800 5800 5800 5801 5802 5802 5801 5801 5800 5799 5799 5799 5799 5798 5797 5796 5795 5793 5791 5789 5787 5785
5815 5812 5796 5782 5768 5760 5771 5788 5791 5798 5805 5802 5796 5795 5789 5785 5792 5793 5798 5801 5801 5800 5800 5799 5800 5799 5799 5799 5799 5799 5800 5801 5801 5801 5800 5799 5798 5797 5797 5798 5797 5796 5794 5793 5791 5789 5788 5786 5784
5813 5802 5793 5777 5770 5780 5787 5793 5799 5798 5801 5803 5797 5789 5792 5798 5798 5799 5801 5801 5799 5799 5799 5798 5798 5798 5798 5798 5798 5798 5799 5800 5800 5799 5799 5798 5797 5797 5797 5797 5796 5795 5793 5791 5789 5788 5786 5784 5782
5811 5795 5779 5769 5775 5789 5799 5803 5804 5797 5796 5798 5795 5785 5785 5797 5803 5802 5801 5800 5798 5797 5798 5797 5797 5797 5797 5797 5797 5797 5798 5799 5798 5798 5797 5796 5795 5795 5796 5797 5795 5793 5791 5790 5788 5785 5783 5782 5780
5799 5789 5768 5763 5776 5792 5801 5807 5804 5797 5796 5798 5794 5786 5785 5797 5799 5799 5800 5798 5797 5796 5796 5796 5796 5796 5796 5796 5796 5796 5797 5797 5797 5796 5795 5795 5794 5794 5796 5796 5794 5792 5789 5787 5785 5783 5781 5780 5778
5795 5783 5772 5773 5776 5787 5800 5808 5803 5797 5795 5798 5799 5785 5786 5794 5798 5800 5799 5797 5796 5795 5795 5794 5795 5795 5795 5795 5796 5796 5796 5795 5795 5794 5794 5793 5792 5792 5793 5794 5793 5790 5788 5786 5784 5781 5779 5777 5777
5805 5788 5778 5777 5778 5786 5804 5809 5809 5803 5799 5808 5804 5786 5784 5794 5800 5799 5796 5795 5794 5793 5793 5793 5794 5794 5794 5794 5795 5795 5794 5793 5793 5792 5792 5791 5790 5790 5790 5791 5790 5789 5786 5784 5781 5778 5776 5776 5776
5812 5783 5773 5781 5784 5792 5807 5804 5809 5814 5807 5806 5805 5800 5799 5801 5799 5794 5791 5790 5790 5791 5791 5792 5792 5793 5793 5793 5793 5793 5792 5791 5791 5790 5790 5789 5788 5788 5788 5788 5787 5786 5784 5782 5780 5777 5775 5774 5773
5803 5779 5787 5801 5803 5802 5807 5806 5807 5804 5798 5797 5798 5801 5803 5799 5795 5790 5787 5785 5786 5787 5790 5791 5791 5792 5792 5792 5792 5791 5790 5789 5788 5788 5787 5787 5786 5786 5785 5785 5784 5783 5782 5780 5778 5776 5774 5772 5771
5804 5794 5804 5810 5814 5813 5808 5808 5811 5800 5791 5796 5796 5796 5798 5795 5792 5789 5787 5787 5787 5788 5790 5791 5791 5791 5791 5791 5790 5789 5788 5787 5787 5786 5786 5785 5784 5783 5782 5781 5780 5779 5778 5777 5775 5774 5772 5770 5769
5807 5809 5815 5815 5819 5815 5810 5808 5805 5801 5801 5810 5808 5804 5799 5794 5791 5790 5788 5788 5789 5789 5789 5791 5791 5791 5790 5790 5789 5788 5787 5786 5785 5785 5784 5784 5782 5781 5779 5778 5777 5776 5775 5774 5772 5771 5770 5769 5767
5809 5811 5818 5820 5818 5816 5812 5807 5804 5803 5811 5812 5808 5802 5797 5794 5793 5793 5793 5792 5790 5789 5790 5791 5791 5790 5789 5788 5787 5786 5785 5785 5784 5783 5783 5782 5780 5778 5778 5777 5776 5775 5773 5772 5770 5769 5768 5767 5766
5814 5814 5815 5817 5816 5816 5808 5805 5804 5802 5810 5807 5803 5799 5797 5795 5794 5793 5792 5791 5790 5790 5791 5791 5791 5790 5789 5787 5786 5785 5785 5784 5783 5782 5781 5781 5779 5778 5777 5776 5774 5773 5772 5771 5769 5768 5766 5766 5765
5819 5809 5808 5812 5813 5813 5809 5795 5798 5806 5807 5802 5800 5798 5796 5796 5795 5793 5793 5792 5792 5792 5792 5792 5791 5791 5789 5787 5786 5785 5784 5783 5782 5781 5780 5780 5779 5778 5777 5775 5773 5772 5771 5770 5768 5767 5765 5764 5763
5809 5796 5787 5803 5810 5811 5799 5778 5798 5807 5803 5797 5797 5797 5795 5795 5796 5796 5796 5795 5794 5793 5792 5792 5793 5791 5789 5787 5785 5784 5783 5782 5781 5780 5780 5779 5778 5778 5776 5774 5773 5772 5771 5769 5767 5765 5763 5762 5761
5787 5777 5780 5794 5807 5805 5794 5782 5797 5805 5802 5796 5796 5796 5795 5793 5794 5796 5797 5796 5795 5794 5793 5791 5791 5790 5788 5787 5785 5784 5782 5781 5780 5779 5779 5778 5778 5777 5776 5773 5772 5771 5770 5768 5767 5764 5762 5760 5759
5776 5778 5780 5784 5799 5798 5788 5786 5796 5802 5800 5796 5795 5795 5793 5792 5793 5796 5797 5797 5796 5794 5793 5791 5790 5789 5788 5786 5784 5782 5781 5779 5779 5778 5778 5777 5776 5775 5774 5772 5771 5770 5768 5766 5765 5763 5761 5759 5758
5793 5785 5781 5789 5803 5793 5785 5786 5792 5798 5797 5794 5792 5792 5791 5792 5795 5797 5797 5796 5794 5792 5791 5789 5788 5786 5785 5783 5780 5777 5776 5776 5776 5777 5776 5776 5775 5774 5772 5771 5769 5768 5766 5765 5764 5762 5759 5757 5757
5793 5784 5782 5790 5801 5793 5783 5783 5793 5797 5797 5797 5795 5793 5792 5792 5792 5794 5795 5795 5792 5790 5789 5788 5787 5786 5785 5783 5780 5778 5777 5775 5775 5775 5774 5774 5774 5773 5772 5770 5768 5767 5765 5763 5762 5760 5758 5757 5756
5791 5786 5786 5785 5792 5792 5784 5776 5784 5794 5797 5798 5797 5796 5795 5793 5792 5792 5793 5792 5791 5789 5788 5788 5786 5785 5784 5783 5780 5778 5775 5773 5772 5771 5771 5771 5771 5771 5770 5768 5767 5766 5764 5762 5760 5759 5757 5754 5754
5783 5800 5797 5790 5777 5766 5776 5754 5775 5783 5787 5792 5793 5793 5794 5795 5794 5792 5792 5791 5790 5789 5789 5787 5786 5784 5783 5781 5778 5774 5770 5767 5767 5768 5768 5769 5769 5769 5768 5767 5766 5764 5763 5761 5760 5759 5757 5754 5750
5796 5804 5796 5787 5774 5763 5765 5755 5764 5778 5778 5785 5791 5794 5794 5795 5794 5792 5792 5791 5790 5790 5788 5786 5784 5782 5781 5779 5777 5773 5769 5768 5767 5767 5766 5766 5766 5766 5766 5765 5764 5763 5761 5760 5759 5757 5756 5754 5751
5805 5793 5782 5770 5760 5747 5758 5752 5757 5769 5780 5787 5792 5794 5794 5794 5794 5793 5792 5791 5789 5788 5786 5783 5781 5779 5779 5776 5774 5772 5769 5766 5765 5764 5763 5762 5762 5763 5763 5763 5762 5761 5759 5758 5757 5756 5754 5753 5750
5794 5769 5745 5742 5733 5739 5757 5753 5760 5784 5792 5794 5793 5794 5795 5794 5792 5790 5789 5787 5786 5785 5783 5780 5778 5776 5775 5773 5771 5770 5768 5766 5764 5762 5761 5760 5759 5759 5759 5759 5759 5758 5757 5756 5755 5753 5752 5750 5748
5784 5773 5744 5733 5729 5737 5752 5749 5771 5793 5797 5798 5796 5795 5794 5792 5791 5789 5788 5787 5785 5783 5781 5779 5775 5773 5772 5770 5769 5768 5766 5763 5762 5761 5760 5759 5758 5757 5757 5757 5756 5755 5754 5753 5752 5750 5749 5747 5745
5780 5769 5770 5745 5739 5734 5742 5756 5777 5791 5791 5792 5792 5791 5790 5790 5789 5787 5786 5785 5783 5781 5779 5777 5774 5771 5769 5767 5766 5764 5763 5761 5759 5758 5757 5756 5755 5755 5755 5754 5752 5751 5750 5749 5747 5746 5744 5743 5741
5791 5773 5754 5740 5727 5725 5741 5748 5757 5775 5780 5784 5785 5786 5787 5786 5786 5785 5784 5783 5781 5779 5777 5774 5772 5769 5767 5765 5763 5762 5759 5758 5757 5755 5753 5752 5752 5751 5750 5749 5748 5746 5745 5744 5742 5740 5739 5738 5736
5778 5768 5752 5737 5737 5725 5724 5743 5779 5780 5783 5783 5785 5785 5784 5783 5782 5781 5780 5779 5778 5776 5773 5770 5768 5765 5763 5761 5759 5757 5755 5754 5753 5751 5750 5749 5748 5747 5745 5744 5743 5741 5740 5739 5737 5735 5733 5731 5730
5785 5773 5757 5745 5735 5729 5727 5745 5788 5785 5786 5785 5784 5783 5782 5781 5780 5778 5776 5773 5771 5769 5768 5766 5764 5761 5759 5757 5755 5753 5751 5750 5748 5746 5745 5744 5743 5742 5741 5740 5738 5737 5735 5734 5732 5730 5728 5725 5723